Terug naar catalogus

CZ-6A DEB

ActiefPO
NORAD 56588·DEBRIS·🇨🇳 China

Gelanceerd Nov 11, 2022 vanaf Taiyuan Satellite Launch Center

Loading…

Volgende Passages (komende 24 uur)

TLE

VersSource: Space-Track

Epoch: Sep 14, 2026, 16:48 UTC

1 56588U 22151ADL 26257.70062657  .00010666  00000-0  13590-2 0  9997
2 56588  98.6256 344.2735 0056740 236.6347 122.9425 14.80589346190745

Volg CZ-6A DEB in realtime met AllMySat

Download on the App Store